GEC8258 GOOY-SBKP

Flight info

Callsign GEC8258
Flight time 6h 18m
Altitude 36000
Route ANITI UA302 TURUP DCT 11N20W DCT SEROD DCT ASOBU DCT KODOS UL206 VRI UN401 SIDUR UZ10 EDMUS
Aircraft MD11/H-SDE1E2E3FGHIJ2J3J4J5M1RWXY/LB1D1

Departure

Time 2026-05-07 15:55
Airport Léopold Sédar Senghor International Airport (GOOY)

Arrival

Time 2026-05-07 22:13
Airport Viracopos International Airport (SBKP)
Time Latitude Longitude Altitude Speed Heading
2026-05-07 15:32 14.74268 -17.48809 91 ft 0 kts 196°
2026-05-07 15:43 14.74275 -17.48807 91 ft 4 kts 196°
2026-05-07 15:43 14.74297 -17.48801 93 ft 4 kts 184°
2026-05-07 15:44 14.74319 -17.48802 94 ft 4 kts 148°
2026-05-07 15:44 14.74336 -17.48818 90 ft 4 kts 112°
2026-05-07 15:44 14.74341 -17.48832 94 ft 0 kts 106°
2026-05-07 15:46 14.74337 -17.48818 94 ft 4 kts 106°
2026-05-07 15:47 14.74326 -17.48780 91 ft 6 kts 106°
2026-05-07 15:47 14.74316 -17.48743 93 ft 5 kts 104°
2026-05-07 15:47 14.74309 -17.48714 94 ft 4 kts 105°
2026-05-07 15:47 14.74301 -17.48688 92 ft 4 kts 107°
2026-05-07 15:48 14.74292 -17.48657 92 ft 5 kts 107°
2026-05-07 15:48 14.74280 -17.48617 94 ft 7 kts 107°
2026-05-07 15:48 14.74268 -17.48554 94 ft 13 kts 92°
2026-05-07 15:48 14.74287 -17.48435 93 ft 20 kts 78°
2026-05-07 15:49 14.74317 -17.48278 94 ft 23 kts 79°
2026-05-07 15:49 14.74327 -17.48126 94 ft 20 kts 106°
2026-05-07 15:49 14.74276 -17.48003 92 ft 17 kts 115°
2026-05-07 15:49 14.74211 -17.47911 95 ft 16 kts 157°
2026-05-07 15:50 14.74090 -17.47892 94 ft 19 kts 174°
2026-05-07 15:50 14.73950 -17.47874 95 ft 21 kts 173°
2026-05-07 15:50 14.73807 -17.47855 93 ft 20 kts 172°
2026-05-07 15:50 14.73679 -17.47837 94 ft 18 kts 172°
2026-05-07 15:51 14.73565 -17.47822 96 ft 16 kts 173°
2026-05-07 15:51 14.73445 -17.47806 95 ft 19 kts 173°
2026-05-07 15:51 14.73302 -17.47786 99 ft 23 kts 172°
2026-05-07 15:51 14.73146 -17.47766 96 ft 22 kts 173°
2026-05-07 15:52 14.73006 -17.47748 99 ft 19 kts 172°
2026-05-07 15:52 14.72883 -17.47731 96 ft 17 kts 172°
2026-05-07 15:52 14.72776 -17.47716 98 ft 14 kts 172°
2026-05-07 15:52 14.72689 -17.47691 97 ft 11 kts 155°
2026-05-07 15:53 14.72660 -17.47672 98 ft 3 kts 164°
2026-05-07 15:53 14.72648 -17.47678 98 ft 2 kts 217°
2026-05-07 15:53 14.72648 -17.47690 100 ft 2 kts 276°
2026-05-07 15:53 14.72669 -17.47701 98 ft 7 kts 342°
2026-05-07 15:54 14.72820 -17.47722 96 ft 51 kts 352°
2026-05-07 15:54 14.73174 -17.47770 97 ft 103 kts 353°
2026-05-07 15:54 14.74115 -17.47896 97 ft 166 kts 352°
2026-05-07 15:54 14.75322 -17.48071 538 ft 175 kts 351°
2026-05-07 15:55 14.76877 -17.48507 1543 ft 176 kts 335°
2026-05-07 15:55 14.77869 -17.49260 2213 ft 181 kts 311°
2026-05-07 15:55 14.78473 -17.50400 2844 ft 184 kts 285°
2026-05-07 15:55 14.78435 -17.51732 3298 ft 196 kts 250°
2026-05-07 15:56 14.77592 -17.52894 3547 ft 211 kts 214°
2026-05-07 15:56 14.76758 -17.53424 3870 ft 217 kts 208°
2026-05-07 15:56 14.75353 -17.54213 4005 ft 242 kts 208°
2026-05-07 15:56 14.73795 -17.55083 4149 ft 266 kts 208°
2026-05-07 15:57 14.72116 -17.56020 4576 ft 278 kts 208°
2026-05-07 15:57 14.70408 -17.56972 5479 ft 280 kts 208°
2026-05-07 15:57 14.68118 -17.58248 6621 ft 285 kts 208°
2026-05-07 15:57 14.66361 -17.59226 7450 ft 289 kts 208°
2026-05-07 15:58 14.65185 -17.59880 7989 ft 291 kts 208°
2026-05-07 15:58 14.63394 -17.60876 8767 ft 294 kts 208°
2026-05-07 15:58 14.61578 -17.61886 9508 ft 298 kts 208°
2026-05-07 15:58 14.59741 -17.62906 10175 ft 306 kts 208°
2026-05-07 15:59 14.57787 -17.63990 10300 ft 332 kts 208°
2026-05-07 15:59 14.55679 -17.65157 10525 ft 353 kts 208°
2026-05-07 15:59 14.53498 -17.66362 11231 ft 358 kts 208°
2026-05-07 15:59 14.51292 -17.67582 11955 ft 362 kts 208°
2026-05-07 16:00 14.49064 -17.68813 12649 ft 365 kts 208°
2026-05-07 16:00 14.46809 -17.70057 13330 ft 369 kts 208°
2026-05-07 16:00 14.44564 -17.71296 13964 ft 373 kts 208°
2026-05-07 16:00 14.42268 -17.72561 14587 ft 376 kts 207°
2026-05-07 16:01 14.39947 -17.73840 15179 ft 380 kts 207°
2026-05-07 16:01 14.37608 -17.75127 15761 ft 383 kts 207°
2026-05-07 16:01 14.35248 -17.76425 16321 ft 386 kts 207°
2026-05-07 16:01 14.32869 -17.77733 16860 ft 389 kts 207°
2026-05-07 16:02 14.30476 -17.79048 17398 ft 392 kts 207°
2026-05-07 16:02 14.28059 -17.80375 17905 ft 395 kts 207°
2026-05-07 16:02 14.25653 -17.81695 18399 ft 398 kts 207°
2026-05-07 16:02 14.23197 -17.83042 18886 ft 401 kts 207°
2026-05-07 16:03 14.20723 -17.84397 19354 ft 404 kts 207°
2026-05-07 16:03 14.18233 -17.85761 19804 ft 407 kts 207°
2026-05-07 16:03 14.15725 -17.87133 20246 ft 409 kts 207°
2026-05-07 16:03 14.13201 -17.88514 20674 ft 412 kts 207°
2026-05-07 16:04 14.10660 -17.89902 21098 ft 415 kts 207°
2026-05-07 16:04 14.08101 -17.91300 21527 ft 417 kts 207°
2026-05-07 16:04 14.05528 -17.92704 21953 ft 420 kts 207°
2026-05-07 16:04 14.02973 -17.94097 22373 ft 423 kts 207°
2026-05-07 16:05 14.00366 -17.95518 22798 ft 425 kts 207°
2026-05-07 16:05 13.97740 -17.96949 23220 ft 428 kts 207°
2026-05-07 16:05 13.95100 -17.98385 23644 ft 431 kts 207°
2026-05-07 16:05 13.92442 -17.99831 24063 ft 433 kts 207°
2026-05-07 16:06 13.89767 -18.01285 24485 ft 436 kts 207°
2026-05-07 16:06 13.87074 -18.02747 24900 ft 439 kts 207°
2026-05-07 16:06 13.84365 -18.04217 25318 ft 442 kts 207°
2026-05-07 16:06 13.81639 -18.05696 25735 ft 444 kts 207°
2026-05-07 16:07 13.78931 -18.07163 26133 ft 447 kts 207°
2026-05-07 16:07 13.76171 -18.08658 26528 ft 450 kts 207°
2026-05-07 16:07 13.73393 -18.10162 26916 ft 453 kts 207°
2026-05-07 16:07 13.70598 -18.11673 27292 ft 455 kts 207°
2026-05-07 16:08 13.67787 -18.13192 27666 ft 458 kts 207°
2026-05-07 16:08 13.64961 -18.14718 28025 ft 460 kts 207°
2026-05-07 16:08 13.62116 -18.16253 28382 ft 463 kts 207°
2026-05-07 16:08 13.59260 -18.17793 28729 ft 465 kts 207°
2026-05-07 16:09 13.56385 -18.19342 29073 ft 468 kts 207°
2026-05-07 16:09 13.53532 -18.20878 29401 ft 470 kts 207°
2026-05-07 16:09 13.50630 -18.22439 29721 ft 472 kts 207°
2026-05-07 16:09 13.47711 -18.24008 30037 ft 475 kts 207°
2026-05-07 16:10 13.44778 -18.25583 30313 ft 477 kts 207°
2026-05-07 16:10 13.41830 -18.27166 30582 ft 479 kts 207°
2026-05-07 16:10 13.38873 -18.28752 30854 ft 480 kts 207°
2026-05-07 16:10 13.35911 -18.30339 31187 ft 480 kts 207°
2026-05-07 16:11 13.32949 -18.31925 31516 ft 480 kts 207°
2026-05-07 16:11 13.29993 -18.33508 31852 ft 479 kts 207°
2026-05-07 16:11 13.27041 -18.35087 32158 ft 478 kts 207°
2026-05-07 16:11 13.24090 -18.36664 32456 ft 478 kts 207°
2026-05-07 16:12 13.21146 -18.38236 32749 ft 477 kts 207°
2026-05-07 16:12 13.18205 -18.39806 33026 ft 476 kts 207°
2026-05-07 16:12 13.15305 -18.41353 33294 ft 476 kts 207°
2026-05-07 16:12 13.12370 -18.42917 33559 ft 475 kts 207°
2026-05-07 16:13 13.09438 -18.44479 33807 ft 475 kts 207°
2026-05-07 16:13 13.06510 -18.46037 34051 ft 474 kts 207°
2026-05-07 16:13 13.03585 -18.47594 34278 ft 474 kts 207°
2026-05-07 16:13 13.00661 -18.49148 34504 ft 473 kts 207°
2026-05-07 16:14 12.97741 -18.50699 34713 ft 473 kts 207°
2026-05-07 16:14 12.94820 -18.52249 34927 ft 472 kts 207°
2026-05-07 16:14 12.91905 -18.53796 35123 ft 472 kts 207°
2026-05-07 16:14 12.89031 -18.55319 35318 ft 471 kts 207°
2026-05-07 16:15 12.86119 -18.56862 35493 ft 471 kts 207°
2026-05-07 16:15 12.83210 -18.58402 35684 ft 470 kts 207°
2026-05-07 16:15 12.80306 -18.59938 35896 ft 469 kts 207°
2026-05-07 16:16 12.74486 -18.63013 35985 ft 472 kts 207°
2026-05-07 16:16 12.68633 -18.66102 35992 ft 474 kts 207°
2026-05-07 16:17 12.62761 -18.69195 35989 ft 476 kts 207°
2026-05-07 16:17 12.56900 -18.72279 35994 ft 477 kts 207°
2026-05-07 16:18 12.50984 -18.75387 35993 ft 478 kts 207°
2026-05-07 16:18 12.45056 -18.78497 35995 ft 479 kts 207°
2026-05-07 16:19 12.39119 -18.81607 35995 ft 479 kts 207°
2026-05-07 16:19 12.33179 -18.84713 35985 ft 479 kts 207°
2026-05-07 16:20 12.27353 -18.88015 35990 ft 479 kts 215°
2026-05-07 16:20 12.22534 -18.92622 36067 ft 478 kts 230°
2026-05-07 16:21 12.18405 -18.97943 36098 ft 478 kts 232°
2026-05-07 16:21 12.14388 -19.03368 36101 ft 479 kts 233°
2026-05-07 16:22 12.10379 -19.08814 36098 ft 480 kts 233°
2026-05-07 16:22 12.06393 -19.14231 36099 ft 480 kts 233°
2026-05-07 16:23 12.02376 -19.19688 36101 ft 481 kts 233°
2026-05-07 16:23 11.98358 -19.25148 36098 ft 481 kts 233°
2026-05-07 16:24 11.94336 -19.30611 36101 ft 481 kts 233°
2026-05-07 16:24 11.90270 -19.36037 36100 ft 481 kts 230°
2026-05-07 16:25 11.85516 -19.40758 36100 ft 480 kts 218°
2026-05-07 16:25 11.80064 -19.44693 36101 ft 480 kts 213°
2026-05-07 16:26 11.74424 -19.48358 36100 ft 481 kts 212°
2026-05-07 16:26 11.68783 -19.52017 36101 ft 481 kts 212°
2026-05-07 16:27 11.63159 -19.55708 36099 ft 481 kts 212°
2026-05-07 16:27 11.57580 -19.59384 36100 ft 481 kts 212°
2026-05-07 16:28 11.51963 -19.63086 36101 ft 481 kts 212°
2026-05-07 16:28 11.46361 -19.66801 36101 ft 481 kts 213°
2026-05-07 16:29 11.40863 -19.70682 36101 ft 481 kts 215°
2026-05-07 16:29 11.35445 -19.74596 36100 ft 481 kts 215°
2026-05-07 16:30 11.29985 -19.78531 36101 ft 481 kts 215°
2026-05-07 16:30 11.24521 -19.82454 36100 ft 481 kts 215°
2026-05-07 16:31 11.19051 -19.86374 36100 ft 481 kts 215°
2026-05-07 16:31 11.13583 -19.90292 36101 ft 481 kts 215°
2026-05-07 16:32 11.08157 -19.94178 36101 ft 481 kts 215°
2026-05-07 16:32 11.02687 -19.98094 36101 ft 481 kts 215°
2026-05-07 16:33 10.97149 -20.01905 36101 ft 481 kts 212°
2026-05-07 16:33 10.91511 -20.05561 36102 ft 481 kts 212°
2026-05-07 16:34 10.85860 -20.09200 36100 ft 481 kts 212°
2026-05-07 16:34 10.80255 -20.12826 36101 ft 481 kts 212°
2026-05-07 16:35 10.74619 -20.16480 36101 ft 481 kts 212°
2026-05-07 16:35 10.68980 -20.20136 36101 ft 481 kts 212°
2026-05-07 16:36 10.63342 -20.23789 36101 ft 481 kts 212°
2026-05-07 16:36 10.57706 -20.27440 36101 ft 481 kts 212°
2026-05-07 16:37 10.52104 -20.31066 36101 ft 481 kts 212°
2026-05-07 16:37 10.46463 -20.34716 36101 ft 481 kts 212°
2026-05-07 16:38 10.40823 -20.38363 36101 ft 481 kts 212°
2026-05-07 16:38 10.35183 -20.42010 36101 ft 481 kts 212°
2026-05-07 16:39 10.29581 -20.45629 36101 ft 481 kts 212°
2026-05-07 16:39 10.23938 -20.49269 36101 ft 481 kts 212°
2026-05-07 16:40 10.18295 -20.52910 36100 ft 481 kts 212°
2026-05-07 16:40 10.12653 -20.56551 36101 ft 481 kts 212°
2026-05-07 16:41 10.07011 -20.60190 36101 ft 481 kts 212°
2026-05-07 16:41 10.01406 -20.63805 36101 ft 481 kts 212°
2026-05-07 16:42 9.95762 -20.67443 36101 ft 481 kts 212°
2026-05-07 16:42 9.90118 -20.71079 36101 ft 481 kts 212°
2026-05-07 16:43 9.84475 -20.74713 36101 ft 481 kts 212°
2026-05-07 16:43 9.78831 -20.78347 36101 ft 481 kts 212°
2026-05-07 16:44 9.73222 -20.81956 36101 ft 481 kts 212°
2026-05-07 16:44 9.67577 -20.85586 36101 ft 481 kts 212°
2026-05-07 16:45 9.61934 -20.89215 36101 ft 481 kts 212°
2026-05-07 16:45 9.56285 -20.92842 36101 ft 481 kts 212°
2026-05-07 16:46 9.50637 -20.96468 36101 ft 481 kts 212°
2026-05-07 16:46 9.45028 -21.00068 36100 ft 481 kts 212°
2026-05-07 16:47 9.39389 -21.03688 36100 ft 481 kts 212°
2026-05-07 16:47 9.33742 -21.07312 36101 ft 481 kts 212°
2026-05-07 16:48 9.28095 -21.10934 36098 ft 481 kts 212°
2026-05-07 16:48 9.22445 -21.14557 36101 ft 481 kts 212°
2026-05-07 16:49 9.16837 -21.18151 36101 ft 481 kts 212°
2026-05-07 16:49 9.11187 -21.21771 36101 ft 481 kts 212°
2026-05-07 16:50 9.05539 -21.25388 36101 ft 481 kts 212°
2026-05-07 16:50 8.99888 -21.29006 36101 ft 481 kts 212°
2026-05-07 16:51 8.94239 -21.32621 36101 ft 481 kts 212°
2026-05-07 16:51 8.88626 -21.36211 36101 ft 481 kts 212°
2026-05-07 16:52 8.82973 -21.39822 36101 ft 481 kts 212°
2026-05-07 16:52 8.77321 -21.43433 36101 ft 481 kts 212°
2026-05-07 16:53 8.71669 -21.47044 36100 ft 481 kts 212°
2026-05-07 16:53 8.66018 -21.50654 36101 ft 481 kts 212°
2026-05-07 16:54 8.60405 -21.54238 36101 ft 481 kts 212°
2026-05-07 16:54 8.54753 -21.57846 36101 ft 481 kts 212°
2026-05-07 16:55 8.49099 -21.61454 36101 ft 481 kts 212°
2026-05-07 16:55 8.43446 -21.65060 36101 ft 481 kts 212°
2026-05-07 16:56 8.37831 -21.68640 36102 ft 481 kts 212°
2026-05-07 16:56 8.29351 -21.74045 36101 ft 481 kts 212°
2026-05-07 16:57 8.23696 -21.77647 36101 ft 481 kts 212°
2026-05-07 16:57 8.18040 -21.81249 36101 ft 481 kts 212°
2026-05-07 16:58 8.12384 -21.84846 36101 ft 481 kts 212°
2026-05-07 16:58 8.06766 -21.88419 36100 ft 481 kts 212°
2026-05-07 16:59 8.01112 -21.92016 36100 ft 481 kts 212°
2026-05-07 16:59 7.95455 -21.95614 36100 ft 481 kts 212°
2026-05-07 17:00 7.89799 -21.99211 36101 ft 481 kts 212°
2026-05-07 17:00 7.84141 -22.02806 36099 ft 481 kts 212°
2026-05-07 17:01 7.78525 -22.06375 36101 ft 481 kts 212°
2026-05-07 17:01 7.72874 -22.09964 36101 ft 481 kts 212°
2026-05-07 17:02 7.67220 -22.13554 36101 ft 481 kts 212°
2026-05-07 17:02 7.61560 -22.17147 36100 ft 481 kts 212°
2026-05-07 17:03 7.55941 -22.20712 36100 ft 481 kts 212°
2026-05-07 17:03 7.50283 -22.24302 36101 ft 481 kts 212°
2026-05-07 17:04 7.44625 -22.27888 36099 ft 481 kts 212°
2026-05-07 17:04 7.38963 -22.31474 36100 ft 481 kts 212°
2026-05-07 17:05 7.33305 -22.35059 36101 ft 481 kts 212°
2026-05-07 17:05 7.27646 -22.38644 36101 ft 481 kts 212°
2026-05-07 17:06 7.21985 -22.42230 36101 ft 481 kts 212°
2026-05-07 17:06 7.16365 -22.45788 36099 ft 481 kts 212°
2026-05-07 17:07 7.10704 -22.49372 36100 ft 481 kts 212°
2026-05-07 17:07 7.05042 -22.52955 36099 ft 481 kts 212°
2026-05-07 17:08 6.99381 -22.56536 36100 ft 481 kts 212°
2026-05-07 17:08 6.93721 -22.60116 36101 ft 481 kts 212°
2026-05-07 17:09 6.88098 -22.63671 36101 ft 481 kts 212°
2026-05-07 17:09 6.82437 -22.67249 36101 ft 481 kts 212°
2026-05-07 17:10 6.76775 -22.70827 36101 ft 481 kts 212°
2026-05-07 17:10 6.71111 -22.74402 36100 ft 481 kts 212°
2026-05-07 17:11 6.65448 -22.77976 36101 ft 481 kts 212°
2026-05-07 17:11 6.59824 -22.81526 36101 ft 481 kts 212°
2026-05-07 17:12 6.54162 -22.85100 36101 ft 481 kts 212°
2026-05-07 17:12 6.48497 -22.88675 36098 ft 481 kts 212°
2026-05-07 17:13 6.42835 -22.92247 36101 ft 481 kts 212°
2026-05-07 17:13 6.37170 -22.95820 36101 ft 481 kts 212°
2026-05-07 17:14 6.31547 -22.99366 36100 ft 481 kts 212°
2026-05-07 17:14 6.25883 -23.02938 36101 ft 481 kts 212°
2026-05-07 17:15 6.20221 -23.06510 36101 ft 481 kts 212°
2026-05-07 17:15 6.14558 -23.10082 36099 ft 481 kts 212°
2026-05-07 17:16 6.08893 -23.13654 36101 ft 481 kts 212°
2026-05-07 17:16 6.03231 -23.17224 36098 ft 481 kts 212°
2026-05-07 17:17 5.97567 -23.20793 36101 ft 481 kts 212°
2026-05-07 17:17 5.91941 -23.24337 36101 ft 481 kts 212°
2026-05-07 17:18 5.86277 -23.27906 36101 ft 481 kts 212°
2026-05-07 17:18 5.80614 -23.31472 36101 ft 481 kts 212°
2026-05-07 17:19 5.74948 -23.35039 36100 ft 481 kts 212°
2026-05-07 17:19 5.69284 -23.38604 36101 ft 481 kts 212°
2026-05-07 17:20 5.63658 -23.42145 36101 ft 481 kts 212°
2026-05-07 17:20 5.57991 -23.45707 36100 ft 481 kts 212°
2026-05-07 17:21 5.52325 -23.49270 36101 ft 481 kts 212°
2026-05-07 17:21 5.46660 -23.52832 36101 ft 481 kts 212°
2026-05-07 17:22 5.40994 -23.56395 36101 ft 481 kts 212°
2026-05-07 17:22 5.35366 -23.59932 36101 ft 481 kts 212°
2026-05-07 17:23 5.29661 -23.63517 36101 ft 481 kts 212°
2026-05-07 17:23 5.23994 -23.67078 36101 ft 481 kts 212°
2026-05-07 17:24 5.18326 -23.70639 36101 ft 481 kts 212°
2026-05-07 17:24 5.12698 -23.74173 36101 ft 481 kts 212°
2026-05-07 17:25 5.07034 -23.77730 36100 ft 481 kts 212°
2026-05-07 17:25 5.01365 -23.81288 36100 ft 481 kts 212°
2026-05-07 17:26 4.95695 -23.84847 36101 ft 481 kts 212°
2026-05-07 17:26 4.90030 -23.88400 36101 ft 481 kts 212°
2026-05-07 17:27 4.84361 -23.91955 36100 ft 481 kts 212°
2026-05-07 17:27 4.78731 -23.95486 36101 ft 481 kts 212°
2026-05-07 17:28 4.73061 -23.99041 36101 ft 481 kts 212°
2026-05-07 17:28 4.67395 -24.02594 36101 ft 481 kts 212°
2026-05-07 17:29 4.61726 -24.06148 36101 ft 481 kts 212°
2026-05-07 17:29 4.56059 -24.09700 36098 ft 481 kts 212°
2026-05-07 17:30 4.50426 -24.13230 36099 ft 481 kts 212°
2026-05-07 17:30 4.44759 -24.16780 36101 ft 481 kts 212°
2026-05-07 17:31 4.39088 -24.20332 36100 ft 481 kts 212°
2026-05-07 17:31 4.33432 -24.23886 36101 ft 481 kts 212°
2026-05-07 17:32 4.27819 -24.27441 36101 ft 481 kts 212°
2026-05-07 17:32 4.23086 -24.30445 36102 ft 481 kts 212°
2026-05-07 17:33 4.16522 -24.34607 36101 ft 481 kts 212°
2026-05-07 17:33 4.10871 -24.38189 36101 ft 481 kts 212°
2026-05-07 17:34 4.05221 -24.41769 36101 ft 481 kts 212°
2026-05-07 17:34 3.99609 -24.45324 36101 ft 481 kts 212°
2026-05-07 17:35 3.93959 -24.48903 36101 ft 481 kts 212°
2026-05-07 17:35 3.88311 -24.52480 36100 ft 481 kts 212°
2026-05-07 17:36 3.82658 -24.56060 36101 ft 481 kts 212°
2026-05-07 17:36 3.77045 -24.59613 36099 ft 481 kts 212°
2026-05-07 17:37 3.71393 -24.63191 36100 ft 481 kts 212°
2026-05-07 17:37 3.65744 -24.66767 36102 ft 481 kts 212°
2026-05-07 17:38 3.60091 -24.70342 36101 ft 481 kts 212°
2026-05-07 17:38 3.54437 -24.73918 36102 ft 481 kts 212°
2026-05-07 17:39 3.48826 -24.77468 36101 ft 481 kts 212°
2026-05-07 17:39 3.43172 -24.81044 36101 ft 481 kts 212°
2026-05-07 17:40 3.37521 -24.84618 36102 ft 481 kts 212°
2026-05-07 17:40 3.31869 -24.88192 36100 ft 481 kts 212°
2026-05-07 17:41 3.26255 -24.91742 36101 ft 481 kts 212°
2026-05-07 17:41 3.20603 -24.95315 36102 ft 481 kts 212°
2026-05-07 17:42 3.14948 -24.98890 36101 ft 481 kts 212°
2026-05-07 17:42 3.09298 -25.02461 36101 ft 481 kts 212°
2026-05-07 17:43 3.03645 -25.06033 36101 ft 481 kts 212°
2026-05-07 17:43 2.98030 -25.09581 36099 ft 481 kts 212°
2026-05-07 17:44 2.92375 -25.13153 36099 ft 481 kts 212°
2026-05-07 17:44 2.86723 -25.16722 36101 ft 481 kts 212°
2026-05-07 17:45 2.81068 -25.20293 36101 ft 481 kts 212°
2026-05-07 17:45 2.75414 -25.23864 36101 ft 481 kts 212°
2026-05-07 17:46 2.69801 -25.27409 36101 ft 481 kts 212°
2026-05-07 17:46 2.64155 -25.30973 36101 ft 481 kts 212°
2026-05-07 17:47 2.58504 -25.34541 36100 ft 481 kts 212°
2026-05-07 17:47 2.52849 -25.38111 36099 ft 481 kts 212°
2026-05-07 17:48 2.47232 -25.41656 36099 ft 481 kts 212°
2026-05-07 17:48 2.41578 -25.45225 36101 ft 481 kts 212°
2026-05-07 17:49 2.35925 -25.48792 36101 ft 481 kts 212°
2026-05-07 17:49 2.30270 -25.52361 36101 ft 481 kts 212°
2026-05-07 17:50 2.24615 -25.55929 36099 ft 481 kts 212°
2026-05-07 17:50 2.19916 -25.58893 36101 ft 481 kts 212°
2026-05-07 17:51 2.13343 -25.63038 36101 ft 481 kts 212°
2026-05-07 17:51 2.07689 -25.66605 36101 ft 481 kts 212°
2026-05-07 17:52 2.02035 -25.70170 36100 ft 481 kts 212°
2026-05-07 17:52 1.97338 -25.73133 36101 ft 481 kts 212°
2026-05-07 17:53 1.90764 -25.77279 36101 ft 481 kts 212°
2026-05-07 17:53 1.85110 -25.80844 36101 ft 481 kts 212°
2026-05-07 17:54 1.80410 -25.83807 36100 ft 481 kts 212°
2026-05-07 17:54 1.74756 -25.87372 36101 ft 481 kts 212°
2026-05-07 17:55 1.69102 -25.90937 36099 ft 481 kts 212°
2026-05-07 17:55 1.63446 -25.94502 36098 ft 481 kts 212°
2026-05-07 17:56 1.57790 -25.98067 36101 ft 481 kts 212°
2026-05-07 17:56 1.52134 -26.01632 36100 ft 481 kts 212°
2026-05-07 17:57 1.46518 -26.05171 36100 ft 481 kts 212°
2026-05-07 17:57 1.40863 -26.08734 36101 ft 481 kts 212°
2026-05-07 17:58 1.35207 -26.12298 36099 ft 481 kts 212°
2026-05-07 17:58 1.29550 -26.15863 36100 ft 481 kts 212°
2026-05-07 17:59 1.23896 -26.19426 36098 ft 481 kts 212°
2026-05-07 17:59 1.18277 -26.22962 36101 ft 481 kts 212°
2026-05-07 18:00 1.12614 -26.26516 36100 ft 481 kts 212°
2026-05-07 18:00 1.06954 -26.30065 36101 ft 481 kts 212°
2026-05-07 18:01 1.01290 -26.33618 36100 ft 481 kts 212°
2026-05-07 18:01 0.95624 -26.37172 36101 ft 481 kts 212°
2026-05-07 18:02 0.87181 -26.42469 36100 ft 481 kts 212°
2026-05-07 18:03 0.81518 -26.46021 36101 ft 481 kts 212°
2026-05-07 18:03 0.75855 -26.49573 36101 ft 481 kts 212°
2026-05-07 18:04 0.70191 -26.53125 36100 ft 481 kts 212°
2026-05-07 18:04 0.64566 -26.56654 36101 ft 481 kts 212°
2026-05-07 18:05 0.58905 -26.60204 36101 ft 481 kts 212°
2026-05-07 18:05 0.53243 -26.63755 36101 ft 481 kts 212°
2026-05-07 18:06 0.47581 -26.67306 36100 ft 481 kts 212°
2026-05-07 18:06 0.41916 -26.70858 36101 ft 481 kts 212°
2026-05-07 18:07 0.36291 -26.74386 36101 ft 481 kts 212°
2026-05-07 18:07 0.30631 -26.77935 36100 ft 481 kts 212°
2026-05-07 18:08 0.24966 -26.81488 36100 ft 481 kts 212°
2026-05-07 18:08 0.19305 -26.85038 36101 ft 481 kts 212°
2026-05-07 18:09 0.13644 -26.88588 36101 ft 481 kts 212°
2026-05-07 18:09 0.07980 -26.92139 36101 ft 481 kts 212°
2026-05-07 18:10 0.02354 -26.95668 36101 ft 481 kts 212°
2026-05-07 18:10 -0.03308 -26.99218 36099 ft 481 kts 212°
2026-05-07 18:11 -0.08971 -27.02769 36101 ft 481 kts 212°
2026-05-07 18:11 -0.14634 -27.06321 36100 ft 481 kts 212°
2026-05-07 18:12 -0.20295 -27.09871 36099 ft 481 kts 212°
2026-05-07 18:12 -0.25920 -27.13396 36101 ft 481 kts 212°
2026-05-07 18:13 -0.31601 -27.16924 36099 ft 481 kts 211°
2026-05-07 18:13 -0.37286 -27.20438 36101 ft 481 kts 211°
2026-05-07 18:14 -0.42973 -27.23954 36101 ft 481 kts 211°
2026-05-07 18:14 -0.48656 -27.27470 36101 ft 481 kts 211°
2026-05-07 18:15 -0.54298 -27.30961 36101 ft 481 kts 211°
2026-05-07 18:15 -0.59976 -27.34493 36101 ft 481 kts 212°
2026-05-07 18:16 -0.65638 -27.38047 36101 ft 481 kts 212°
2026-05-07 18:16 -0.71299 -27.41604 36101 ft 481 kts 212°
2026-05-07 18:17 -0.76945 -27.45149 36101 ft 481 kts 212°
2026-05-07 18:17 -0.82572 -27.48681 36101 ft 481 kts 212°
2026-05-07 18:18 -0.88234 -27.52235 36101 ft 481 kts 212°
2026-05-07 18:18 -0.93896 -27.55789 36101 ft 481 kts 212°
2026-05-07 18:19 -0.99558 -27.59343 36099 ft 481 kts 212°
2026-05-07 18:19 -1.05218 -27.62896 36100 ft 481 kts 212°
2026-05-07 18:20 -1.10842 -27.66426 36101 ft 481 kts 212°
2026-05-07 18:20 -1.16503 -27.69980 36101 ft 481 kts 212°
2026-05-07 18:21 -1.22164 -27.73534 36101 ft 481 kts 212°
2026-05-07 18:21 -1.27826 -27.77090 36101 ft 481 kts 212°
2026-05-07 18:22 -1.33447 -27.80619 36099 ft 481 kts 212°
2026-05-07 18:22 -1.39108 -27.84174 36101 ft 481 kts 212°
2026-05-07 18:23 -1.44770 -27.87730 36100 ft 481 kts 212°
2026-05-07 18:23 -1.50431 -27.91285 36100 ft 481 kts 212°
2026-05-07 18:24 -1.56091 -27.94840 36101 ft 481 kts 212°
2026-05-07 18:24 -1.61714 -27.98371 36101 ft 481 kts 212°
2026-05-07 18:25 -1.67376 -28.01928 36101 ft 481 kts 212°
2026-05-07 18:25 -1.73037 -28.05484 36100 ft 481 kts 212°
2026-05-07 18:26 -1.78697 -28.09039 36101 ft 481 kts 212°
2026-05-07 18:26 -1.84358 -28.12596 36099 ft 481 kts 212°
2026-05-07 18:27 -1.89981 -28.16129 36101 ft 481 kts 212°
2026-05-07 18:27 -1.95640 -28.19685 36101 ft 481 kts 212°
2026-05-07 18:28 -2.01299 -28.23241 36101 ft 481 kts 212°
2026-05-07 18:28 -2.06961 -28.26800 36101 ft 481 kts 212°
2026-05-07 18:29 -2.12620 -28.30357 36101 ft 481 kts 212°
2026-05-07 18:29 -2.18243 -28.33892 36101 ft 481 kts 212°
2026-05-07 18:30 -2.23904 -28.37450 36101 ft 481 kts 212°
2026-05-07 18:30 -2.29562 -28.41007 36100 ft 481 kts 212°
2026-05-07 18:31 -2.35220 -28.44565 36098 ft 481 kts 212°
2026-05-07 18:31 -2.40882 -28.48125 36099 ft 481 kts 212°
2026-05-07 18:32 -2.46495 -28.51654 36099 ft 481 kts 212°
2026-05-07 18:32 -2.52155 -28.55214 36101 ft 481 kts 212°
2026-05-07 18:33 -2.57814 -28.58774 36101 ft 481 kts 212°
2026-05-07 18:33 -2.63473 -28.62333 36100 ft 481 kts 212°
2026-05-07 18:34 -2.69133 -28.65894 36101 ft 481 kts 212°
2026-05-07 18:34 -2.74754 -28.69432 36101 ft 481 kts 212°
2026-05-07 18:35 -2.80413 -28.72994 36101 ft 481 kts 212°
2026-05-07 18:35 -2.86072 -28.76555 36101 ft 481 kts 212°
2026-05-07 18:36 -2.91730 -28.80116 36100 ft 481 kts 212°
2026-05-07 18:36 -2.97389 -28.83679 36101 ft 481 kts 212°
2026-05-07 18:37 -3.03049 -28.87242 36100 ft 481 kts 212°
2026-05-07 18:37 -3.08666 -28.90778 36101 ft 481 kts 212°
2026-05-07 18:38 -3.14325 -28.94338 36102 ft 481 kts 212°
2026-05-07 18:38 -3.19987 -28.97901 36101 ft 481 kts 212°
2026-05-07 18:39 -3.25648 -29.01463 36102 ft 481 kts 212°
2026-05-07 18:39 -3.31309 -29.05026 36101 ft 481 kts 212°
2026-05-07 18:40 -3.36928 -29.08562 36101 ft 481 kts 212°
2026-05-07 18:40 -3.42588 -29.12126 36099 ft 481 kts 212°
2026-05-07 18:41 -3.48248 -29.15689 36101 ft 481 kts 212°
2026-05-07 18:41 -3.53908 -29.19253 36101 ft 481 kts 212°
2026-05-07 18:42 -3.59566 -29.22816 36101 ft 481 kts 212°
2026-05-07 18:42 -3.65185 -29.26358 36098 ft 481 kts 212°
2026-05-07 18:43 -3.70844 -29.29925 36098 ft 481 kts 212°
2026-05-07 18:43 -3.76501 -29.33491 36102 ft 481 kts 212°
2026-05-07 18:44 -3.82159 -29.37059 36100 ft 481 kts 212°
2026-05-07 18:44 -3.87778 -29.40602 36100 ft 481 kts 212°
2026-05-07 18:45 -3.93435 -29.44169 36101 ft 481 kts 212°
2026-05-07 18:45 -3.99092 -29.47738 36101 ft 481 kts 212°
2026-05-07 18:46 -4.04749 -29.51307 36101 ft 481 kts 212°
2026-05-07 18:46 -4.10370 -29.54853 36101 ft 481 kts 212°
2026-05-07 18:47 -4.16016 -29.58416 36099 ft 481 kts 212°
2026-05-07 18:47 -4.21674 -29.61988 36100 ft 481 kts 212°
2026-05-07 18:48 -4.27329 -29.65558 36099 ft 481 kts 212°
2026-05-07 18:48 -4.32949 -29.69106 36101 ft 481 kts 212°
2026-05-07 18:49 -4.38603 -29.72679 36101 ft 481 kts 212°
2026-05-07 18:49 -4.44259 -29.76252 36102 ft 481 kts 212°
2026-05-07 18:50 -4.49916 -29.79826 36101 ft 481 kts 212°
2026-05-07 18:50 -4.55534 -29.83376 36101 ft 481 kts 212°
2026-05-07 18:51 -4.61189 -29.86949 36100 ft 481 kts 212°
2026-05-07 18:51 -4.66842 -29.90523 36101 ft 481 kts 212°
2026-05-07 18:52 -4.72498 -29.94099 36100 ft 481 kts 212°
2026-05-07 18:52 -4.78152 -29.97674 36101 ft 481 kts 212°
2026-05-07 18:53 -4.83770 -30.01228 36101 ft 481 kts 212°
2026-05-07 18:53 -4.89425 -30.04805 36099 ft 481 kts 212°
2026-05-07 18:54 -4.95080 -30.08383 36101 ft 481 kts 212°
2026-05-07 18:54 -5.00731 -30.11959 36101 ft 481 kts 212°
2026-05-07 18:55 -5.06385 -30.15540 36100 ft 481 kts 212°
2026-05-07 18:55 -5.12001 -30.19097 36101 ft 481 kts 212°
2026-05-07 18:56 -5.17656 -30.22678 36099 ft 481 kts 212°
2026-05-07 18:56 -5.23305 -30.26257 36101 ft 481 kts 212°
2026-05-07 18:57 -5.28961 -30.29840 36101 ft 481 kts 212°
2026-05-07 18:57 -5.34614 -30.33422 36101 ft 481 kts 212°
2026-05-07 18:58 -5.40227 -30.36980 36101 ft 481 kts 212°
2026-05-07 18:58 -5.45882 -30.40564 36101 ft 481 kts 212°
2026-05-07 18:59 -5.51532 -30.44147 36101 ft 481 kts 212°
2026-05-07 18:59 -5.57185 -30.47733 36100 ft 481 kts 212°
2026-05-07 19:00 -5.62836 -30.51317 36098 ft 481 kts 212°
2026-05-07 19:00 -5.68489 -30.54904 36100 ft 481 kts 212°
2026-05-07 19:01 -5.74103 -30.58468 36101 ft 481 kts 212°
2026-05-07 19:01 -5.79753 -30.62057 36098 ft 481 kts 212°
2026-05-07 19:02 -5.85392 -30.65639 36100 ft 481 kts 212°
2026-05-07 19:02 -5.91046 -30.69230 36101 ft 481 kts 212°
2026-05-07 19:03 -5.96695 -30.72819 36101 ft 481 kts 212°
2026-05-07 19:03 -6.02308 -30.76386 36101 ft 481 kts 212°
2026-05-07 19:04 -6.07958 -30.79977 36101 ft 481 kts 212°
2026-05-07 19:04 -6.13607 -30.83569 36099 ft 481 kts 212°
2026-05-07 19:05 -6.19258 -30.87162 36101 ft 481 kts 212°
2026-05-07 19:05 -6.24906 -30.90755 36101 ft 481 kts 212°
2026-05-07 19:06 -6.30556 -30.94349 36101 ft 481 kts 212°
2026-05-07 19:06 -6.38992 -30.99719 36100 ft 481 kts 212°
2026-05-07 19:07 -6.44639 -31.03314 36101 ft 481 kts 212°
2026-05-07 19:07 -6.50288 -31.06915 36101 ft 481 kts 212°
2026-05-07 19:08 -6.55935 -31.10513 36100 ft 481 kts 212°
2026-05-07 19:08 -6.61581 -31.14111 36101 ft 481 kts 212°
2026-05-07 19:09 -6.67191 -31.17687 36099 ft 481 kts 212°
2026-05-07 19:09 -6.72839 -31.21287 36101 ft 481 kts 212°
2026-05-07 19:10 -6.78485 -31.24888 36101 ft 481 kts 212°
2026-05-07 19:10 -6.84133 -31.28491 36098 ft 481 kts 212°
2026-05-07 19:11 -6.89779 -31.32094 36099 ft 481 kts 212°
2026-05-07 19:11 -6.95425 -31.35697 36101 ft 481 kts 212°
2026-05-07 19:12 -7.01034 -31.39278 36101 ft 481 kts 212°
2026-05-07 19:12 -7.06679 -31.42883 36101 ft 481 kts 212°
2026-05-07 19:13 -7.12324 -31.46490 36101 ft 481 kts 212°
2026-05-07 19:13 -7.17969 -31.50099 36100 ft 481 kts 212°
2026-05-07 19:14 -7.23613 -31.53709 36101 ft 481 kts 212°
2026-05-07 19:14 -7.29217 -31.57293 36099 ft 481 kts 212°
2026-05-07 19:15 -7.34860 -31.60902 36100 ft 481 kts 212°
2026-05-07 19:15 -7.40505 -31.64514 36101 ft 481 kts 212°
2026-05-07 19:16 -7.46149 -31.68126 36101 ft 481 kts 212°
2026-05-07 19:16 -7.51785 -31.71734 36101 ft 481 kts 212°
2026-05-07 19:17 -7.57428 -31.75347 36100 ft 481 kts 212°
2026-05-07 19:17 -7.63034 -31.78938 36099 ft 481 kts 212°
2026-05-07 19:18 -7.68677 -31.82554 36101 ft 481 kts 212°
2026-05-07 19:18 -7.74319 -31.86171 36101 ft 481 kts 212°
2026-05-07 19:19 -7.79959 -31.89787 36101 ft 481 kts 212°
2026-05-07 19:19 -7.85601 -31.93406 36100 ft 481 kts 212°
2026-05-07 19:20 -7.91202 -31.97003 36101 ft 481 kts 212°
2026-05-07 19:20 -7.96843 -32.00626 36101 ft 481 kts 212°
2026-05-07 19:21 -8.02483 -32.04247 36101 ft 481 kts 212°
2026-05-07 19:21 -8.08123 -32.07870 36102 ft 481 kts 212°
2026-05-07 19:22 -8.13763 -32.11493 36101 ft 481 kts 212°
2026-05-07 19:22 -8.19404 -32.15118 36100 ft 481 kts 212°
2026-05-07 19:23 -8.25006 -32.18720 36101 ft 481 kts 212°
2026-05-07 19:23 -8.30643 -32.22345 36101 ft 481 kts 212°
2026-05-07 19:24 -8.36284 -32.25974 36100 ft 481 kts 212°
2026-05-07 19:24 -8.41922 -32.29602 36101 ft 481 kts 212°
2026-05-07 19:25 -8.47560 -32.33232 36101 ft 481 kts 212°
2026-05-07 19:25 -8.53197 -32.36862 36100 ft 481 kts 212°
2026-05-07 19:26 -8.58794 -32.40470 36101 ft 481 kts 212°
2026-05-07 19:26 -8.64432 -32.44107 36101 ft 481 kts 212°
2026-05-07 19:27 -8.70067 -32.47741 36099 ft 481 kts 212°
2026-05-07 19:27 -8.75703 -32.51376 36100 ft 481 kts 212°
2026-05-07 19:28 -8.81340 -32.55014 36101 ft 481 kts 212°
2026-05-07 19:28 -8.86936 -32.58626 36101 ft 481 kts 212°
2026-05-07 19:29 -8.92573 -32.62264 36101 ft 481 kts 212°
2026-05-07 19:29 -8.98208 -32.65904 36100 ft 481 kts 212°
2026-05-07 19:30 -9.03843 -32.69544 36099 ft 481 kts 212°
2026-05-07 19:30 -9.09477 -32.73186 36101 ft 481 kts 212°
2026-05-07 19:31 -9.15111 -32.76828 36100 ft 481 kts 212°
2026-05-07 19:31 -9.20699 -32.80442 36102 ft 481 kts 212°
2026-05-07 19:32 -9.26332 -32.84087 36101 ft 481 kts 212°
2026-05-07 19:32 -9.31964 -32.87733 36101 ft 481 kts 212°
2026-05-07 19:33 -9.37597 -32.91380 36101 ft 481 kts 212°
2026-05-07 19:33 -9.43230 -32.95029 36100 ft 481 kts 212°
2026-05-07 19:34 -9.48822 -32.98657 36100 ft 481 kts 212°
2026-05-07 19:34 -9.54453 -33.02310 36101 ft 481 kts 212°
2026-05-07 19:35 -9.60084 -33.05963 36101 ft 481 kts 212°
2026-05-07 19:35 -9.65715 -33.09617 36101 ft 481 kts 212°
2026-05-07 19:36 -9.71343 -33.13270 36101 ft 481 kts 212°
2026-05-07 19:36 -9.76976 -33.16927 36101 ft 481 kts 212°
2026-05-07 19:37 -9.82606 -33.20585 36100 ft 481 kts 212°
2026-05-07 19:37 -9.88195 -33.24217 36099 ft 481 kts 212°
2026-05-07 19:38 -9.93825 -33.27877 36100 ft 481 kts 212°
2026-05-07 19:38 -9.99453 -33.31538 36098 ft 481 kts 212°
2026-05-07 19:39 -10.05079 -33.35199 36102 ft 481 kts 212°
2026-05-07 19:39 -10.09758 -33.38245 36102 ft 481 kts 212°
2026-05-07 19:40 -10.16296 -33.42503 36102 ft 481 kts 212°
2026-05-07 19:40 -10.21922 -33.46173 36100 ft 481 kts 212°
2026-05-07 19:41 -10.27547 -33.49842 36099 ft 481 kts 212°
2026-05-07 19:41 -10.33173 -33.53511 36100 ft 481 kts 212°
2026-05-07 19:42 -10.38800 -33.57181 36101 ft 481 kts 212°
2026-05-07 19:42 -10.43474 -33.60231 36101 ft 481 kts 212°
2026-05-07 19:43 -10.50012 -33.64500 36100 ft 481 kts 212°
2026-05-07 19:43 -10.55636 -33.68174 36100 ft 481 kts 212°
2026-05-07 19:44 -10.60309 -33.71227 36101 ft 481 kts 212°
2026-05-07 19:44 -10.65932 -33.74903 36099 ft 481 kts 212°
2026-05-07 19:45 -10.71558 -33.78583 36101 ft 481 kts 212°
2026-05-07 19:45 -10.78092 -33.82858 36102 ft 481 kts 212°
2026-05-07 19:46 -10.82799 -33.85940 36101 ft 481 kts 212°
2026-05-07 19:46 -10.88384 -33.89600 36100 ft 481 kts 212°
2026-05-07 19:47 -10.93993 -33.93280 36101 ft 481 kts 212°
2026-05-07 19:47 -10.99616 -33.96967 36101 ft 481 kts 212°
2026-05-07 19:48 -11.05235 -34.00652 36098 ft 481 kts 212°
2026-05-07 19:48 -11.10856 -34.04340 36100 ft 481 kts 212°
2026-05-07 19:49 -11.16475 -34.08028 36101 ft 481 kts 212°
2026-05-07 19:49 -11.22057 -34.11694 36102 ft 481 kts 212°
2026-05-07 19:50 -11.27676 -34.15386 36098 ft 481 kts 212°
2026-05-07 19:50 -11.33292 -34.19078 36098 ft 481 kts 212°
2026-05-07 19:51 -11.38913 -34.22774 36100 ft 481 kts 212°
2026-05-07 19:51 -11.44528 -34.26469 36100 ft 481 kts 212°
2026-05-07 19:52 -11.50106 -34.30141 36101 ft 481 kts 212°
2026-05-07 19:52 -11.55759 -34.33865 36101 ft 481 kts 212°
2026-05-07 19:53 -11.61336 -34.37545 36102 ft 481 kts 212°
2026-05-07 19:53 -11.66953 -34.41251 36102 ft 481 kts 212°
2026-05-07 19:54 -11.72565 -34.44954 36101 ft 481 kts 212°
2026-05-07 19:54 -11.78181 -34.48660 36101 ft 481 kts 212°
2026-05-07 19:55 -11.83794 -34.52366 36101 ft 481 kts 212°
2026-05-07 19:55 -11.89371 -34.56051 36101 ft 481 kts 212°
2026-05-07 19:56 -11.94983 -34.59760 36102 ft 481 kts 212°
2026-05-07 19:56 -12.00595 -34.63471 36101 ft 481 kts 212°
2026-05-07 19:57 -12.06207 -34.67184 36100 ft 481 kts 212°
2026-05-07 19:57 -12.11817 -34.70897 36101 ft 481 kts 213°
2026-05-07 19:58 -12.17392 -34.74590 36101 ft 481 kts 213°
2026-05-07 19:58 -12.23003 -34.78308 36099 ft 481 kts 213°
2026-05-07 19:59 -12.28612 -34.82027 36101 ft 481 kts 213°
2026-05-07 19:59 -12.34219 -34.85751 36098 ft 481 kts 213°
2026-05-07 20:00 -12.39827 -34.89476 36100 ft 481 kts 213°
2026-05-07 20:00 -12.45397 -34.93176 36101 ft 481 kts 213°
2026-05-07 20:01 -12.51005 -34.96901 36102 ft 481 kts 213°
2026-05-07 20:01 -12.56611 -35.00628 36099 ft 481 kts 213°
2026-05-07 20:02 -12.62212 -35.04352 36101 ft 481 kts 213°
2026-05-07 20:02 -12.67818 -35.08082 36101 ft 481 kts 213°
2026-05-07 20:03 -12.73423 -35.11814 36101 ft 481 kts 213°
2026-05-07 20:03 -12.79029 -35.15548 36101 ft 481 kts 213°
2026-05-07 20:04 -12.84596 -35.19258 36100 ft 481 kts 213°
2026-05-07 20:04 -12.90198 -35.22994 36099 ft 481 kts 213°
2026-05-07 20:05 -12.95803 -35.26734 36099 ft 481 kts 213°
2026-05-07 20:05 -13.01405 -35.30476 36101 ft 481 kts 213°
2026-05-07 20:06 -13.07006 -35.34223 36100 ft 481 kts 213°
2026-05-07 20:06 -13.12568 -35.37942 36102 ft 481 kts 213°
2026-05-07 20:07 -13.18171 -35.41689 36100 ft 481 kts 213°
2026-05-07 20:07 -13.23774 -35.45437 36099 ft 481 kts 213°
2026-05-07 20:08 -13.29373 -35.49185 36100 ft 481 kts 213°
2026-05-07 20:08 -13.34936 -35.52911 36100 ft 481 kts 213°
2026-05-07 20:09 -13.40534 -35.56664 36099 ft 481 kts 213°
2026-05-07 20:10 -13.48934 -35.62299 36100 ft 481 kts 213°
2026-05-07 20:10 -13.54529 -35.66054 36099 ft 481 kts 213°
2026-05-07 20:11 -13.60127 -35.69811 36099 ft 481 kts 213°
2026-05-07 20:11 -13.65688 -35.73546 36099 ft 481 kts 213°
2026-05-07 20:12 -13.71285 -35.77308 36101 ft 481 kts 213°
2026-05-07 20:12 -13.76881 -35.81071 36100 ft 481 kts 213°
2026-05-07 20:13 -13.82478 -35.84837 36101 ft 481 kts 213°
2026-05-07 20:13 -13.88072 -35.88603 36098 ft 481 kts 213°
2026-05-07 20:14 -13.93627 -35.92345 36102 ft 481 kts 213°
2026-05-07 20:14 -13.99222 -35.96117 36102 ft 481 kts 213°
2026-05-07 20:15 -14.04815 -35.99889 36102 ft 481 kts 213°
2026-05-07 20:15 -14.10405 -36.03666 36102 ft 481 kts 213°
2026-05-07 20:16 -14.15995 -36.07445 36100 ft 481 kts 213°
2026-05-07 20:16 -14.21586 -36.11225 36101 ft 481 kts 213°
2026-05-07 20:17 -14.27130 -36.14973 36101 ft 481 kts 213°
2026-05-07 20:17 -14.32724 -36.18756 36100 ft 481 kts 213°
2026-05-07 20:18 -14.38313 -36.22539 36100 ft 481 kts 213°
2026-05-07 20:18 -14.43903 -36.26325 36098 ft 481 kts 213°
2026-05-07 20:19 -14.49454 -36.30087 36101 ft 481 kts 213°
2026-05-07 20:19 -14.55040 -36.33875 36101 ft 481 kts 213°
2026-05-07 20:20 -14.60630 -36.37668 36100 ft 481 kts 213°
2026-05-07 20:20 -14.66217 -36.41462 36100 ft 481 kts 213°
2026-05-07 20:21 -14.71804 -36.45257 36101 ft 481 kts 213°
2026-05-07 20:21 -14.77388 -36.49054 36100 ft 481 kts 213°
2026-05-07 20:22 -14.82931 -36.52831 36101 ft 481 kts 213°
2026-05-07 20:22 -14.88516 -36.56636 36100 ft 481 kts 213°
2026-05-07 20:23 -14.94097 -36.60438 36099 ft 481 kts 213°
2026-05-07 20:23 -14.99682 -36.64244 36101 ft 481 kts 213°
2026-05-07 20:24 -15.05265 -36.68051 36101 ft 481 kts 213°
2026-05-07 20:24 -15.10810 -36.71835 36101 ft 481 kts 213°
2026-05-07 20:25 -15.16389 -36.75645 36100 ft 481 kts 213°
2026-05-07 20:25 -15.21969 -36.79457 36100 ft 481 kts 213°
2026-05-07 20:26 -15.27549 -36.83272 36101 ft 481 kts 213°
2026-05-07 20:26 -15.33091 -36.87063 36100 ft 481 kts 213°
2026-05-07 20:27 -15.38708 -36.90909 36100 ft 481 kts 213°
2026-05-07 20:27 -15.44247 -36.94703 36101 ft 481 kts 213°
2026-05-07 20:28 -15.49824 -36.98531 36100 ft 481 kts 213°
2026-05-07 20:28 -15.55397 -37.02360 36099 ft 481 kts 213°
2026-05-07 20:29 -15.60973 -37.06189 36100 ft 481 kts 213°
2026-05-07 20:29 -15.66510 -37.09992 36102 ft 481 kts 213°
2026-05-07 20:30 -15.72085 -37.13824 36102 ft 481 kts 213°
2026-05-07 20:30 -15.77659 -37.17657 36100 ft 481 kts 213°
2026-05-07 20:31 -15.83232 -37.21493 36101 ft 481 kts 213°
2026-05-07 20:31 -15.88768 -37.25305 36100 ft 481 kts 213°
2026-05-07 20:32 -15.94331 -37.29138 36101 ft 481 kts 213°
2026-05-07 20:32 -15.99903 -37.32981 36099 ft 481 kts 213°
2026-05-07 20:33 -16.05473 -37.36825 36101 ft 481 kts 213°
2026-05-07 20:33 -16.11045 -37.40672 36102 ft 481 kts 213°
2026-05-07 20:34 -16.16586 -37.44477 36101 ft 481 kts 213°
2026-05-07 20:34 -16.22175 -37.48294 36101 ft 481 kts 213°
2026-05-07 20:35 -16.27764 -37.52109 36102 ft 481 kts 213°
2026-05-07 20:35 -16.33356 -37.55929 36102 ft 481 kts 213°
2026-05-07 20:36 -16.38946 -37.59752 36101 ft 481 kts 213°
2026-05-07 20:36 -16.44495 -37.63549 36101 ft 481 kts 213°
2026-05-07 20:37 -16.50082 -37.67376 36099 ft 481 kts 213°
2026-05-07 20:37 -16.55667 -37.71204 36101 ft 481 kts 213°
2026-05-07 20:38 -16.61254 -37.75035 36100 ft 481 kts 213°
2026-05-07 20:38 -16.66840 -37.78869 36100 ft 481 kts 213°
2026-05-07 20:39 -16.72386 -37.82678 36101 ft 481 kts 213°
2026-05-07 20:39 -16.77970 -37.86515 36101 ft 481 kts 213°
2026-05-07 20:40 -16.83550 -37.90357 36101 ft 480 kts 213°
2026-05-07 20:40 -16.89123 -37.94200 36100 ft 480 kts 213°
2026-05-07 20:41 -16.94655 -37.98013 36100 ft 479 kts 213°
2026-05-07 20:41 -17.00219 -38.01849 36100 ft 479 kts 213°
2026-05-07 20:42 -17.05779 -38.05684 36101 ft 479 kts 213°
2026-05-07 20:42 -17.11334 -38.09518 36100 ft 478 kts 213°
2026-05-07 20:43 -17.16884 -38.13351 36101 ft 478 kts 213°
2026-05-07 20:43 -17.22389 -38.17157 36100 ft 477 kts 213°
2026-05-07 20:44 -17.27929 -38.20989 36101 ft 477 kts 213°
2026-05-07 20:44 -17.33462 -38.24819 36100 ft 477 kts 213°
2026-05-07 20:45 -17.38991 -38.28650 36101 ft 476 kts 213°
2026-05-07 20:45 -17.44513 -38.32478 36099 ft 476 kts 213°
2026-05-07 20:46 -17.49993 -38.36280 36101 ft 475 kts 213°
2026-05-07 20:46 -17.55503 -38.40113 36100 ft 475 kts 213°
2026-05-07 20:47 -17.60998 -38.43937 36098 ft 475 kts 213°
2026-05-07 20:47 -17.66500 -38.47765 36099 ft 474 kts 213°
2026-05-07 20:48 -17.71996 -38.51590 36102 ft 474 kts 213°
2026-05-07 20:48 -17.77453 -38.55390 36099 ft 474 kts 213°
2026-05-07 20:49 -17.82938 -38.59212 36099 ft 473 kts 213°
2026-05-07 20:49 -17.88419 -38.63035 36101 ft 473 kts 213°
2026-05-07 20:50 -17.93895 -38.66857 36099 ft 472 kts 213°
2026-05-07 20:50 -17.99326 -38.70650 36101 ft 472 kts 213°
2026-05-07 20:51 -18.04792 -38.74471 36099 ft 472 kts 213°
2026-05-07 20:51 -18.10253 -38.78292 36099 ft 471 kts 213°
2026-05-07 20:52 -18.15705 -38.82109 36101 ft 471 kts 213°
2026-05-07 20:52 -18.21153 -38.85926 36101 ft 470 kts 213°
2026-05-07 20:53 -18.26555 -38.89723 36101 ft 470 kts 213°
2026-05-07 20:53 -18.31993 -38.93544 36101 ft 470 kts 213°
2026-05-07 20:54 -18.37425 -38.97360 36099 ft 469 kts 213°
2026-05-07 20:54 -18.42856 -39.01171 36100 ft 469 kts 213°
2026-05-07 20:55 -18.48310 -39.04945 36100 ft 469 kts 213°
2026-05-07 20:55 -18.53737 -39.08680 36101 ft 469 kts 213°
2026-05-07 20:56 -18.59201 -39.12444 36102 ft 469 kts 213°
2026-05-07 20:56 -18.64664 -39.16213 36100 ft 469 kts 213°
2026-05-07 20:57 -18.70124 -39.19984 36102 ft 469 kts 213°
2026-05-07 20:57 -18.75583 -39.23757 36102 ft 469 kts 213°
2026-05-07 20:58 -18.81004 -39.27507 36099 ft 469 kts 213°
2026-05-07 20:58 -18.86463 -39.31286 36100 ft 469 kts 213°
2026-05-07 20:59 -18.91920 -39.35067 36101 ft 469 kts 213°
2026-05-07 20:59 -18.97377 -39.38851 36102 ft 469 kts 213°
2026-05-07 21:00 -19.02832 -39.42636 36101 ft 469 kts 213°
2026-05-07 21:00 -19.08250 -39.46399 36101 ft 469 kts 213°
2026-05-07 21:01 -19.13701 -39.50190 36101 ft 469 kts 213°
2026-05-07 21:01 -19.19153 -39.53991 36099 ft 469 kts 213°
2026-05-07 21:02 -19.24596 -39.57785 36101 ft 469 kts 213°
2026-05-07 21:02 -19.30047 -39.61583 36102 ft 469 kts 213°
2026-05-07 21:03 -19.35461 -39.65358 36098 ft 469 kts 213°
2026-05-07 21:03 -19.40912 -39.69162 36101 ft 469 kts 213°
2026-05-07 21:04 -19.46362 -39.72968 36101 ft 469 kts 213°
2026-05-07 21:04 -19.51810 -39.76776 36101 ft 469 kts 213°
2026-05-07 21:05 -19.57257 -39.80586 36101 ft 469 kts 213°
2026-05-07 21:05 -19.62706 -39.84401 36099 ft 469 kts 213°
2026-05-07 21:06 -19.68114 -39.88191 36101 ft 469 kts 213°
2026-05-07 21:06 -19.73564 -39.92001 36099 ft 469 kts 213°
2026-05-07 21:07 -19.79018 -39.95803 36101 ft 469 kts 213°
2026-05-07 21:07 -19.84478 -39.99608 36101 ft 469 kts 213°
2026-05-07 21:08 -19.89934 -40.03414 36101 ft 469 kts 213°
2026-05-07 21:08 -19.95351 -40.07196 36100 ft 469 kts 213°
2026-05-07 21:09 -20.00807 -40.11008 36101 ft 469 kts 213°
2026-05-07 21:09 -20.06259 -40.14821 36099 ft 469 kts 213°
2026-05-07 21:10 -20.11710 -40.18637 36101 ft 469 kts 213°
2026-05-07 21:10 -20.17162 -40.22456 36101 ft 469 kts 213°
2026-05-07 21:11 -20.22578 -40.26254 36100 ft 469 kts 213°
2026-05-07 21:11 -20.30124 -40.32822 36102 ft 469 kts 228°
2026-05-07 21:12 -20.34338 -40.38138 36100 ft 470 kts 230°
2026-05-07 21:12 -20.38514 -40.43492 36100 ft 470 kts 230°
2026-05-07 21:13 -20.42748 -40.48794 36101 ft 470 kts 229°
2026-05-07 21:13 -20.46980 -40.54037 36100 ft 470 kts 229°
2026-05-07 21:14 -20.51244 -40.59315 36101 ft 470 kts 229°
2026-05-07 21:14 -20.55507 -40.64601 36098 ft 470 kts 229°
2026-05-07 21:15 -20.59764 -40.69886 36099 ft 470 kts 229°
2026-05-07 21:15 -20.63993 -40.75143 36100 ft 470 kts 229°
2026-05-07 21:16 -20.68246 -40.80434 36100 ft 470 kts 229°
2026-05-07 21:16 -20.72547 -40.85671 36101 ft 470 kts 228°
2026-05-07 21:17 -20.76904 -40.90874 36100 ft 470 kts 228°
2026-05-07 21:17 -20.81264 -40.96071 36101 ft 470 kts 228°
2026-05-07 21:18 -20.85619 -41.01276 36100 ft 470 kts 228°
2026-05-07 21:18 -20.89940 -41.06454 36101 ft 470 kts 228°
2026-05-07 21:19 -20.94287 -41.11668 36101 ft 470 kts 228°
2026-05-07 21:19 -20.98634 -41.16884 36101 ft 470 kts 228°
2026-05-07 21:20 -21.02980 -41.22102 36101 ft 470 kts 228°
2026-05-07 21:20 -21.07327 -41.27327 36100 ft 470 kts 228°
2026-05-07 21:21 -21.11668 -41.32550 36101 ft 470 kts 228°
2026-05-07 21:21 -21.15983 -41.37745 36100 ft 470 kts 228°
2026-05-07 21:22 -21.20321 -41.42975 36100 ft 470 kts 228°
2026-05-07 21:22 -21.24659 -41.48208 36100 ft 470 kts 228°
2026-05-07 21:23 -21.28996 -41.53447 36100 ft 470 kts 228°
2026-05-07 21:23 -21.33314 -41.58703 36100 ft 470 kts 229°
2026-05-07 21:24 -21.37626 -41.63967 36101 ft 470 kts 228°
2026-05-07 21:24 -21.41941 -41.69232 36100 ft 470 kts 228°
2026-05-07 21:25 -21.46226 -41.74462 36101 ft 470 kts 228°
2026-05-07 21:25 -21.50539 -41.79731 36101 ft 470 kts 229°
2026-05-07 21:26 -21.54851 -41.85003 36099 ft 470 kts 229°
2026-05-07 21:26 -21.59159 -41.90275 36100 ft 470 kts 229°
2026-05-07 21:27 -21.63467 -41.95554 36101 ft 470 kts 229°
2026-05-07 21:27 -21.67744 -42.00798 36100 ft 470 kts 229°
2026-05-07 21:28 -21.72050 -42.06084 36101 ft 470 kts 229°
2026-05-07 21:28 -21.76351 -42.11370 36101 ft 470 kts 229°
2026-05-07 21:29 -21.80652 -42.16660 36101 ft 470 kts 229°
2026-05-07 21:29 -21.84785 -42.22037 36100 ft 470 kts 236°
2026-05-07 21:30 -21.87914 -42.28200 36102 ft 470 kts 244°
2026-05-07 21:30 -21.90668 -42.34583 36101 ft 470 kts 245°
2026-05-07 21:31 -21.93457 -42.40946 36100 ft 470 kts 244°
2026-05-07 21:31 -21.96299 -42.47274 36101 ft 470 kts 244°
2026-05-07 21:32 -21.99142 -42.53561 36102 ft 470 kts 244°
2026-05-07 21:32 -22.02002 -42.59895 36098 ft 470 kts 244°
2026-05-07 21:33 -22.04859 -42.66232 36100 ft 470 kts 244°
2026-05-07 21:33 -22.07730 -42.72560 36101 ft 470 kts 244°
2026-05-07 21:34 -22.10142 -42.77808 36101 ft 470 kts 243°
2026-05-07 21:34 -22.13522 -42.85142 36101 ft 470 kts 243°
2026-05-07 21:35 -22.16430 -42.91461 36101 ft 470 kts 243°
2026-05-07 21:35 -22.18861 -42.96752 36101 ft 470 kts 243°
2026-05-07 21:36 -22.21742 -43.03031 36098 ft 470 kts 243°
2026-05-07 21:36 -22.24639 -43.09353 36101 ft 470 kts 243°
2026-05-07 21:37 -22.27529 -43.15684 36101 ft 470 kts 244°
2026-05-07 21:37 -22.30401 -43.22021 36102 ft 470 kts 244°
2026-05-07 21:38 -22.33274 -43.28360 36101 ft 470 kts 244°
2026-05-07 21:38 -22.36129 -43.34660 36101 ft 470 kts 244°
2026-05-07 21:39 -22.39001 -43.41003 36101 ft 470 kts 244°
2026-05-07 21:39 -22.41871 -43.47349 36101 ft 470 kts 244°
2026-05-07 21:40 -22.44738 -43.53697 36098 ft 470 kts 244°
2026-05-07 21:40 -22.47603 -43.60049 36101 ft 470 kts 244°
2026-05-07 21:41 -22.50445 -43.66360 36101 ft 470 kts 244°
2026-05-07 21:41 -22.53305 -43.72716 36099 ft 470 kts 244°
2026-05-07 21:42 -22.56162 -43.79076 36101 ft 470 kts 244°
2026-05-07 21:42 -22.59016 -43.85437 36101 ft 470 kts 244°
2026-05-07 21:43 -22.61849 -43.91758 36101 ft 470 kts 244°
2026-05-07 21:43 -22.64691 -43.98131 36098 ft 470 kts 244°
2026-05-07 21:44 -22.67525 -44.04503 36102 ft 470 kts 244°
2026-05-07 21:44 -22.70367 -44.10881 36099 ft 470 kts 244°
2026-05-07 21:45 -22.73211 -44.17252 36101 ft 470 kts 243°
2026-05-07 21:45 -22.76451 -44.23341 36099 ft 470 kts 237°
2026-05-07 21:46 -22.80036 -44.29261 36100 ft 470 kts 236°
2026-05-07 21:46 -22.83634 -44.35173 36099 ft 470 kts 237°
2026-05-07 21:47 -22.87196 -44.41103 36100 ft 470 kts 237°
2026-05-07 21:47 -22.90745 -44.47052 36100 ft 470 kts 237°
2026-05-07 21:48 -22.94265 -44.52964 36101 ft 470 kts 237°
2026-05-07 21:48 -22.97809 -44.58922 36101 ft 470 kts 237°
2026-05-07 21:49 -23.01353 -44.64884 36101 ft 470 kts 237°
2026-05-07 21:49 -23.04231 -44.71219 36103 ft 469 kts 252°
2026-05-07 21:50 -23.05820 -44.78097 36101 ft 470 kts 258°
2026-05-07 21:50 -23.07192 -44.84985 36101 ft 470 kts 257°
2026-05-07 21:51 -23.08665 -44.91902 36101 ft 470 kts 256°
2026-05-07 21:51 -23.10196 -44.98809 35884 ft 471 kts 256°
2026-05-07 21:52 -23.10967 -45.02267 35529 ft 471 kts 256°
2026-05-07 21:52 -23.11739 -45.05728 35026 ft 472 kts 256°
2026-05-07 21:52 -23.12512 -45.09200 34412 ft 472 kts 256°
2026-05-07 21:52 -23.13283 -45.12670 33821 ft 474 kts 256°
2026-05-07 21:53 -23.14057 -45.16158 33227 ft 475 kts 256°
2026-05-07 21:53 -23.14820 -45.19608 32646 ft 477 kts 256°
2026-05-07 21:53 -23.15595 -45.23110 32045 ft 478 kts 256°
2026-05-07 21:53 -23.16371 -45.26627 31456 ft 480 kts 256°
2026-05-07 21:54 -23.17150 -45.30158 30829 ft 481 kts 256°
2026-05-07 21:54 -23.17929 -45.33692 30364 ft 481 kts 256°
2026-05-07 21:54 -23.18705 -45.37218 30115 ft 479 kts 256°
2026-05-07 21:54 -23.19474 -45.40733 30064 ft 478 kts 256°
2026-05-07 21:55 -23.21013 -45.47759 30063 ft 478 kts 256°
2026-05-07 21:55 -23.22596 -45.54719 30065 ft 478 kts 255°
2026-05-07 21:56 -23.24466 -45.61650 29953 ft 477 kts 253°
2026-05-07 21:56 -23.25366 -45.65127 29398 ft 479 kts 258°
2026-05-07 21:56 -23.25759 -45.68692 28454 ft 472 kts 269°
2026-05-07 21:57 -23.25486 -45.72214 27521 ft 465 kts 281°
2026-05-07 21:57 -23.24679 -45.75590 26605 ft 458 kts 287°
2026-05-07 21:57 -23.23784 -45.78893 25679 ft 452 kts 285°
2026-05-07 21:57 -23.23022 -45.82187 24887 ft 446 kts 282°
2026-05-07 21:58 -23.22428 -45.85465 24180 ft 440 kts 280°
2026-05-07 21:58 -23.21957 -45.88735 23512 ft 436 kts 278°
2026-05-07 21:58 -23.21431 -45.91946 23206 ft 432 kts 282°
2026-05-07 21:58 -23.20868 -45.95156 22728 ft 433 kts 279°
2026-05-07 21:59 -23.20433 -45.98316 22163 ft 427 kts 278°
2026-05-07 21:59 -23.20039 -46.01500 21526 ft 423 kts 277°
2026-05-07 21:59 -23.19663 -46.04649 20894 ft 419 kts 277°
2026-05-07 21:59 -23.19295 -46.07777 20265 ft 415 kts 277°
2026-05-07 22:00 -23.18931 -46.10871 19643 ft 411 kts 277°
2026-05-07 22:00 -23.18571 -46.13936 19025 ft 407 kts 277°
2026-05-07 22:00 -23.18214 -46.16975 18416 ft 404 kts 277°
2026-05-07 22:00 -23.17859 -46.19988 17810 ft 400 kts 277°
2026-05-07 22:01 -23.17507 -46.22975 17209 ft 396 kts 277°
2026-05-07 22:01 -23.17158 -46.25931 16616 ft 393 kts 277°
2026-05-07 22:01 -23.16816 -46.28824 16044 ft 390 kts 277°
2026-05-07 22:01 -23.16472 -46.31733 15474 ft 386 kts 277°
2026-05-07 22:02 -23.16131 -46.34614 14909 ft 383 kts 277°
2026-05-07 22:02 -23.15791 -46.37478 14347 ft 380 kts 277°
2026-05-07 22:02 -23.15454 -46.40317 13788 ft 377 kts 277°
2026-05-07 22:02 -23.15120 -46.43130 13247 ft 374 kts 277°
2026-05-07 22:03 -23.14790 -46.45922 12698 ft 371 kts 276°
2026-05-07 22:03 -23.14594 -46.48706 12159 ft 368 kts 273°
2026-05-07 22:03 -23.14478 -46.51442 11650 ft 358 kts 273°
2026-05-07 22:03 -23.14336 -46.54093 11316 ft 345 kts 274°
2026-05-07 22:04 -23.14152 -46.56629 11166 ft 327 kts 275°
2026-05-07 22:04 -23.13942 -46.59044 11072 ft 318 kts 276°
2026-05-07 22:04 -23.13711 -46.61425 10956 ft 316 kts 276°
2026-05-07 22:04 -23.13471 -46.63762 10845 ft 315 kts 276°
2026-05-07 22:05 -23.13220 -46.66124 10713 ft 315 kts 277°
2026-05-07 22:05 -23.12965 -46.68486 10460 ft 315 kts 277°
2026-05-07 22:05 -23.12706 -46.70847 9953 ft 313 kts 277°
2026-05-07 22:05 -23.12449 -46.73183 9399 ft 310 kts 277°
2026-05-07 22:06 -23.12192 -46.75501 8862 ft 308 kts 277°
2026-05-07 22:06 -23.11939 -46.77797 8373 ft 304 kts 276°
2026-05-07 22:06 -23.12056 -46.80071 8077 ft 301 kts 257°
2026-05-07 22:06 -23.12629 -46.82272 7706 ft 303 kts 251°
2026-05-07 22:07 -23.13318 -46.84389 7329 ft 300 kts 250°
2026-05-07 22:07 -23.14042 -46.86512 6957 ft 299 kts 249°
2026-05-07 22:07 -23.14763 -46.88621 6668 ft 295 kts 250°
2026-05-07 22:07 -23.15328 -46.90760 6592 ft 296 kts 263°
2026-05-07 22:08 -23.15175 -46.92974 6273 ft 294 kts 289°
2026-05-07 22:08 -23.14247 -46.94856 6097 ft 269 kts 306°
2026-05-07 22:08 -23.13179 -46.96385 6081 ft 240 kts 309°
2026-05-07 22:08 -23.12191 -46.97728 6070 ft 216 kts 309°
2026-05-07 22:09 -23.11292 -46.98951 5887 ft 200 kts 309°
2026-05-07 22:09 -23.10455 -47.00100 5439 ft 185 kts 309°
2026-05-07 22:09 -23.09700 -47.01137 4997 ft 168 kts 309°
2026-05-07 22:09 -23.08984 -47.02122 4450 ft 164 kts 309°
2026-05-07 22:10 -23.08275 -47.03100 4085 ft 163 kts 309°
2026-05-07 22:10 -23.07571 -47.04074 4082 ft 166 kts 309°
2026-05-07 22:10 -23.06857 -47.05063 4074 ft 167 kts 309°
2026-05-07 22:10 -23.06123 -47.06032 3829 ft 163 kts 310°
2026-05-07 22:11 -23.05429 -47.06943 3420 ft 153 kts 308°
2026-05-07 22:11 -23.04772 -47.07892 3111 ft 157 kts 308°
2026-05-07 22:11 -23.04114 -47.08774 2825 ft 155 kts 310°
2026-05-07 22:11 -23.03426 -47.09694 2675 ft 159 kts 308°
2026-05-07 22:12 -23.02744 -47.10662 2609 ft 160 kts 308°
2026-05-07 22:12 -23.02056 -47.11619 2390 ft 159 kts 308°
2026-05-07 22:12 -23.01426 -47.12493 2186 ft 146 kts 308°
2026-05-07 22:12 -23.00932 -47.13184 2164 ft 91 kts 308°
2026-05-07 22:13 -23.00662 -47.13560 2159 ft 44 kts 307°
2026-05-07 22:13 -23.00477 -47.13821 2159 ft 42 kts 308°
2026-05-07 22:13 -23.00302 -47.14063 2153 ft 43 kts 308°
2026-05-07 22:13 -23.00118 -47.14316 2151 ft 42 kts 308°
2026-05-07 22:14 -22.99954 -47.14547 2149 ft 23 kts 308°
2026-05-07 22:14 -22.99956 -47.14617 2150 ft 12 kts 232°
2026-05-07 22:14 -23.00019 -47.14682 2151 ft 11 kts 217°
2026-05-07 22:14 -23.00076 -47.14724 2147 ft 9 kts 210°
2026-05-07 22:15 -23.00127 -47.14752 2150 ft 7 kts 207°
2026-05-07 22:15 -23.00170 -47.14780 2149 ft 9 kts 210°
2026-05-07 22:15 -23.00211 -47.14811 2149 ft 0 kts 219°